TimeEDT,TemperatureF,Dew PointF,Humidity,Sea Level PressureIn,VisibilityMPH,Wind Direction,Wind SpeedMPH,Gust SpeedMPH,PrecipitationIn,Events,Conditions,WindDirDegrees,DateUTC
12:15 AM,42.8,33.8,70,30.11,10.0,Calm,Calm,-,N/A,,Clear,0,2013-03-31 04:15:00
12:35 AM,41.0,33.8,76,30.11,10.0,Calm,Calm,-,N/A,,Clear,0,2013-03-31 04:35:00
12:55 AM,39.2,33.8,81,30.11,10.0,Calm,Calm,-,N/A,,Clear,0,2013-03-31 04:55:00
1:15 AM,41.0,35.6,81,30.11,10.0,North,3.5,-,N/A,,Clear,360,2013-03-31 05:15:00
1:35 AM,41.0,33.8,76,30.10,10.0,Calm,Calm,-,N/A,,Clear,0,2013-03-31 05:35:00
1:55 AM,41.0,35.6,81,30.10,10.0,Calm,Calm,-,N/A,,Clear,0,2013-03-31 05:55:00
2:15 AM,41.0,-40.0,4,30.10,10.0,Calm,Calm,-,N/A,,Clear,0,2013-03-31 06:15:00
2:35 AM,41.0,-40.0,4,30.09,10.0,NNE,3.5,-,N/A,,Clear,20,2013-03-31 06:35:00
2:55 AM,39.2,-41.8,4,30.08,10.0,NNE,3.5,-,N/A,,Clear,30,2013-03-31 06:55:00
3:15 AM,39.2,-41.8,4,30.07,10.0,Calm,Calm,-,N/A,,Clear,0,2013-03-31 07:15:00
3:35 AM,41.0,21.2,45,30.07,10.0,Calm,Calm,-,N/A,,Clear,0,2013-03-31 07:35:00
3:55 AM,39.2,19.4,45,30.06,10.0,Calm,Calm,-,N/A,,Clear,0,2013-03-31 07:55:00
4:15 AM,39.2,-34.6,4,30.05,10.0,Calm,Calm,-,N/A,,Clear,0,2013-03-31 08:15:00
4:35 AM,39.2,10.4,31,30.04,10.0,Calm,Calm,-,N/A,,Clear,0,2013-03-31 08:35:00
4:55 AM,39.2,24.8,56,30.04,10.0,Calm,Calm,-,N/A,,Clear,0,2013-03-31 08:55:00
5:15 AM,39.2,-40.0,4,30.03,10.0,Calm,Calm,-,N/A,,Clear,0,2013-03-31 09:15:00
5:35 AM,39.2,-36.4,4,30.02,10.0,Calm,Calm,-,N/A,,Clear,0,2013-03-31 09:35:00
5:55 AM,39.2,-36.4,4,30.02,10.0,Calm,Calm,-,N/A,,Clear,0,2013-03-31 09:55:00
6:15 AM,41.0,-32.8,4,30.02,10.0,Calm,Calm,-,N/A,,Clear,0,2013-03-31 10:15:00
6:35 AM,41.0,-27.4,5,30.01,10.0,Calm,Calm,-,N/A,,Clear,0,2013-03-31 10:35:00
6:55 AM,41.0,8.6,26,30.01,10.0,Calm,Calm,-,N/A,,Clear,0,2013-03-31 10:55:00
7:15 AM,42.8,26.6,53,30.02,10.0,Calm,Calm,-,N/A,,Clear,0,2013-03-31 11:15:00
7:35 AM,42.8,39.2,87,30.02,10.0,Calm,Calm,-,N/A,,Scattered Clouds,0,2013-03-31 11:35:00
7:55 AM,42.8,39.2,87,30.02,10.0,Calm,Calm,-,N/A,,Scattered Clouds,0,2013-03-31 11:55:00
8:15 AM,44.6,39.2,81,30.01,10.0,Calm,Calm,-,N/A,,Clear,0,2013-03-31 12:15:00
8:35 AM,46.4,37.4,71,30.01,10.0,Calm,Calm,-,N/A,,Scattered Clouds,0,2013-03-31 12:35:00
8:55 AM,46.4,39.2,76,30.00,10.0,Calm,Calm,-,N/A,,Scattered Clouds,0,2013-03-31 12:55:00
9:15 AM,48.2,39.2,71,29.99,10.0,Calm,Calm,-,N/A,,Drizzle,0,2013-03-31 13:15:00
9:35 AM,48.2,39.2,71,29.99,10.0,Calm,Calm,-,N/A,,Mostly Cloudy,0,2013-03-31 13:35:00
9:55 AM,50.0,39.2,66,29.98,10.0,Calm,Calm,-,N/A,Rain,Light Rain,0,2013-03-31 13:55:00
10:15 AM,50.0,42.8,76,29.97,10.0,Calm,Calm,-,N/A,Rain,Light Rain,0,2013-03-31 14:15:00
10:55 AM,51.8,42.8,71,29.94,10.0,SSE,4.6,-,N/A,Rain,Light Rain,150,2013-03-31 14:55:00
11:15 AM,51.8,44.6,76,29.93,10.0,SSE,4.6,-,N/A,,Light Drizzle,150,2013-03-31 15:15:00
11:35 AM,53.6,46.4,77,29.93,10.0,South,3.5,-,N/A,,Overcast,180,2013-03-31 15:35:00
11:55 AM,53.6,46.4,77,29.92,10.0,Calm,Calm,-,N/A,,Overcast,0,2013-03-31 15:55:00
12:15 PM,53.6,46.4,77,29.90,7.0,Calm,Calm,-,N/A,Rain,Rain,0,2013-03-31 16:15:00
12:35 PM,51.8,48.2,88,29.89,7.0,Calm,Calm,-,N/A,,Drizzle,0,2013-03-31 16:35:00
12:55 PM,51.8,51.8,100,29.87,3.0,Calm,Calm,-,N/A,,Drizzle,0,2013-03-31 16:55:00
1:15 PM,51.8,51.8,100,29.85,2.0,Calm,Calm,-,N/A,,Heavy Drizzle,0,2013-03-31 17:15:00
1:35 PM,51.8,51.8,100,29.85,2.5,Calm,Calm,-,0.01,,Drizzle,0,2013-03-31 17:35:00
1:55 PM,51.8,51.8,100,29.84,2.0,WNW,3.5,-,0.01,,Drizzle,300,2013-03-31 17:55:00
2:15 PM,51.8,51.8,100,29.83,1.8,WNW,4.6,-,0.01,,Heavy Drizzle,290,2013-03-31 18:15:00
2:35 PM,50.0,50.0,100,29.81,1.5,NW,4.6,-,0.01,Rain,Light Rain,310,2013-03-31 18:35:00
2:55 PM,51.8,51.8,100,29.80,2.5,Calm,Calm,-,0.01,,Overcast,0,2013-03-31 18:55:00
3:15 PM,51.8,51.8,100,29.80,4.0,NNW,3.5,-,N/A,,Overcast,340,2013-03-31 19:15:00
3:35 PM,51.8,51.8,100,29.80,5.0,Calm,Calm,-,N/A,Rain,Light Rain,0,2013-03-31 19:35:00
3:55 PM,53.6,53.6,100,29.80,7.0,Calm,Calm,-,N/A,,Overcast,0,2013-03-31 19:55:00
4:15 PM,53.6,53.6,100,29.79,7.0,Calm,Calm,-,N/A,,Overcast,0,2013-03-31 20:15:00
4:35 PM,53.6,53.6,100,29.79,10.0,SW,5.8,-,N/A,,Overcast,220,2013-03-31 20:35:00
4:55 PM,55.4,53.6,94,29.79,10.0,SW,11.5,-,N/A,,Overcast,220,2013-03-31 20:55:00
5:15 PM,55.4,53.6,94,29.78,10.0,SSW,10.4,-,N/A,,Overcast,210,2013-03-31 21:15:00
5:35 PM,55.4,53.6,94,29.77,10.0,SW,6.9,-,N/A,,Mostly Cloudy,220,2013-03-31 21:35:00
5:55 PM,55.4,53.6,94,29.78,10.0,SSW,4.6,-,N/A,,Mostly Cloudy,200,2013-03-31 21:55:00
6:15 PM,55.4,53.6,94,29.77,10.0,South,4.6,-,N/A,,Overcast,180,2013-03-31 22:15:00
6:35 PM,55.4,53.6,94,29.77,10.0,SSW,4.6,-,N/A,,Mostly Cloudy,210,2013-03-31 22:35:00
6:55 PM,55.4,53.6,94,29.78,10.0,SSW,3.5,-,N/A,,Clear,200,2013-03-31 22:55:00
7:15 PM,55.4,53.6,94,29.78,7.0,Calm,Calm,-,N/A,,Clear,0,2013-03-31 23:15:00
7:35 PM,53.6,53.6,100,29.77,7.0,Calm,Calm,-,N/A,,Clear,0,2013-03-31 23:35:00
7:55 PM,51.8,51.8,100,29.77,7.0,Calm,Calm,-,N/A,,Clear,0,2013-03-31 23:55:00
8:15 PM,50.0,50.0,100,29.77,4.0,Calm,Calm,-,N/A,,Clear,0,2013-04-01 00:15:00
8:35 PM,50.0,50.0,100,29.77,5.0,Calm,Calm,-,N/A,,Mostly Cloudy,0,2013-04-01 00:35:00
8:55 PM,48.2,48.2,100,29.78,5.0,Calm,Calm,-,N/A,,Scattered Clouds,0,2013-04-01 00:55:00
9:15 PM,48.2,48.2,100,29.80,1.5,Calm,Calm,-,N/A,,Mostly Cloudy,0,2013-04-01 01:15:00
9:35 PM,48.2,48.2,100,29.80,4.0,Calm,Calm,-,N/A,,Overcast,0,2013-04-01 01:35:00
9:55 PM,48.2,48.2,100,29.80,4.0,Calm,Calm,-,N/A,,Mostly Cloudy,0,2013-04-01 01:55:00
10:15 PM,48.2,48.2,100,29.81,2.5,Calm,Calm,-,N/A,,Mostly Cloudy,0,2013-04-01 02:15:00
10:35 PM,48.2,48.2,100,29.81,2.5,North,3.5,-,N/A,,Mostly Cloudy,10,2013-04-01 02:35:00
10:55 PM,46.4,46.4,100,29.80,2.0,Calm,Calm,-,N/A,,Mostly Cloudy,0,2013-04-01 02:55:00
11:15 PM,46.4,46.4,100,29.80,3.0,Calm,Calm,-,N/A,,Scattered Clouds,0,2013-04-01 03:15:00
11:35 PM,44.6,44.6,100,29.81,1.0,Calm,Calm,-,N/A,,Overcast,0,2013-04-01 03:35:00
11:55 PM,44.6,44.6,100,29.80,3.0,Calm,Calm,-,N/A,,Overcast,0,2013-04-01 03:55:00